DW8108 Weather Reports


Display with metric or nautical units.
time (UTC)temp
F
wind
direction
speed
MPH
gust
MPH
rain 1hr
in
rain 24hr
in
rain mn
in
humidity
%
barometer
mb
20260901134559 77 0.0 6.0 0.00 0.00 0.00 88 1014.3
20260901133059 76 0.0 6.0 0.00 0.00 0.00 90 1014.2
20260901131558 75 0.0 4.0 0.00 0.00 0.00 91 1014.2
20260901130057 74 0.0 2.0 0.00 0.00 0.00 90 1014.3
20260901124556 74 0.0 1.0 0.00 0.00 0.00 90 1014.4
20260901123111 74 0.0 3.0 0.00 0.00 0.00 89 1014.3
20260901121556 74 0.0 5.0 0.00 0.00 0.00 89 1014.3
20260901120059 74 0.0 3.0 0.00 0.00 0.00 88 1014.1
20260901114550 74 0.0 3.0 0.00 0.00 0.00 88 1013.9
20260901113050 75 0.0 3.0 0.00 0.00 0.00 87 1013.6
20260901111550 75 0.0 5.0 0.00 0.00 0.00 87 1013.5
20260901110045 75 0.0 7.0 0.00 0.00 0.00 87 1013.6
20260901104543 76 0.0 5.0 0.00 0.00 0.00 86 1013.5
20260901103041 76 0.0 8.0 0.00 0.00 0.00 85 1013.5
20260901101540 76 0.0 6.0 0.00 0.00 0.00 85 1013.3
20260901100046 76 0.0 9.0 0.00 0.00 0.00 85 1013.3
20260901094540 77 0.0 8.0 0.00 0.00 0.00 84 1013.2
20260901093039 77 0.0 10.0 0.00 0.00 0.00 84 1013.2
20260901091539 77 0.0 10.0 0.00 0.00 0.00 84 1013.3
20260901090036 77 0.0 10.0 0.00 0.00 0.00 84 1013.2
20260901084536 77 0.0 9.0 0.00 0.00 0.00 84 1013.1
20260901083035 77 0.0 9.0 0.00 0.00 0.00 84 1013.1
20260901081536 77 0.0 10.0 0.00 0.00 0.00 84 1013.0
20260901080037 77 0.0 9.0 0.00 0.00 0.00 84 1012.9
20260901074531 77 0.0 9.0 0.00 0.00 0.00 83 1012.9
20260901073032 77 0.0 7.0 0.00 0.00 0.00 83 1012.8
20260901071531 77 0.0 7.0 0.00 0.00 0.00 83 1012.6
20260901070029 77 0.0 9.0 0.00 0.00 0.00 84 1012.6
20260901064529 76 0.0 10.0 0.00 0.00 0.00 85 1012.6
20260901063035 76 0.0 7.0 0.00 0.00 0.00 86 1012.6
20260901061526 76 0.0 5.0 0.00 0.00 0.00 86 1012.6
20260901060023 75 0.0 5.0 0.00 0.00 0.00 86 1012.7
20260901054522 75 0.0 5.0 0.00 0.00 0.00 86 1012.9
20260901053024 76 0.0 5.0 0.00 0.00 0.00 86 1012.9
20260901051532 76 0.0 4.0 0.00 0.00 0.00 85 1012.9
20260901050017 76 0.0 3.0 0.00 0.00 0.00 85 1012.9
20260901044517 76 0.0 6.0 0.00 0.00 0.00 85 1012.8
20260901043028 76 0.0 7.0 0.00 0.00 0.00 85 1012.7
20260901041517 76 0.0 6.0 0.00 0.00 0.00 86 1012.6
20260901040022 76 0.0 6.0 0.00 0.00 0.00 86 1012.7
20260901034514 77 0.0 4.0 0.00 0.00 0.00 86 1012.8
20260901033017 77 0.0 3.0 0.00 0.00 0.00 85 1013.1
20260901031513 78 0.0 5.0 0.00 0.00 0.00 85 1013.1
20260901030012 78 0.0 6.0 0.00 0.00 0.00 84 1013.1
20260901024511 78 0.0 6.0 0.00 0.00 0.00 84 1013.1
20260901023010 78 0.0 6.0 0.00 0.00 0.00 84 1013.1
20260901021510 78 0.0 5.0 0.00 0.00 0.00 85 1013.0
20260901020010 79 0.0 3.0 0.00 0.00 0.00 85 1013.1
20260901014509 79 0.0 5.0 0.00 0.00 0.00 85 1013.1
20260901013008 79 0.0 6.0 0.00 0.00 0.00 86 1012.9
20260901011507 79 0.0 5.0 0.00 0.00 0.00 86 1012.8
20260901010007 80 0.0 5.0 0.00 0.00 0.00 85 1012.8
20260901004507 81 0.0 0.0 0.00 0.00 0.00 83 1013.7
20260901003006 82 0.0 2.0 0.00 0.00 0.00 81 1013.9
20260901001505 83 0.0 1.0 0.00 0.00 0.00 79 1013.3
20260901000005 84 0.0 2.0 0.00 0.00 0.00 77 1013.0
20260831234506 86 0.0 4.0 0.00 0.00 0.00 74 1013.2
20260831233005 86 0.0 5.0 0.00 0.00 0.00 71 1013.5
20260831231503 87 0.0 4.0 0.00 0.00 0.00 70 1012.9
20260831230004 88 0.0 5.0 0.00 0.00 0.00 69 1012.5
20260831224501 88 0.0 11.0 0.00 0.00 0.00 68 1012.3
20260831223001 89 0.0 16.0 0.00 0.00 0.00 66 1012.2
20260831221500 89 0.0 16.0 0.00 0.00 0.00 66 1011.9
20260831220101 89 0.0 10.0 0.00 0.00 0.00 65 1012.1
20260831214602 90 0.0 13.0 0.00 0.00 0.00 64 1012.0
20260831213101 90 0.0 14.0 0.00 0.00 0.00 65 1012.1
20260831211600 90 0.0 15.0 0.00 0.00 0.00 66 1012.0
20260831210057 90 0.0 13.0 0.00 0.00 0.00 63 1012.1
20260831204555 91 0.0 12.0 0.00 0.00 0.00 64 1012.3
20260831203053 91 0.0 16.0 0.00 0.00 0.00 65 1012.4
20260831201553 91 0.0 11.0 0.00 0.00 0.00 64 1012.4
20260831200050 90 0.0 11.0 0.00 0.00 0.00 64 1012.6
20260831194618 90 0.0 15.0 0.00 0.00 0.00 65 1012.8
20260831193048 90 0.0 9.0 0.00 0.00 0.00 67 1012.7
20260831191544 89 0.0 10.0 0.00 0.00 0.00 66 1012.9
20260831190054 88 0.0 14.0 0.00 0.00 0.00 65 1012.9
20260831184539 88 0.0 11.0 0.00 0.00 0.00 68 1013.2
20260831183038 88 0.0 9.0 0.00 0.00 0.00 67 1013.5
20260831181543 87 0.0 10.0 0.00 0.00 0.00 69 1013.6
20260831180033 87 0.0 10.0 0.00 0.00 0.00 68 1013.9
20260831174531 86 0.0 14.0 0.00 0.00 0.00 68 1014.2
20260831173030 86 0.0 8.0 0.00 0.00 0.00 70 1014.4
20260831171529 86 0.0 9.0 0.00 0.00 0.00 69 1014.8
20260831170033 85 0.0 7.0 0.00 0.00 0.00 69 1015.0
20260831164523 85 0.0 7.0 0.00 0.00 0.00 70 1015.4
20260831163030 83 0.0 8.0 0.00 0.00 0.00 73 1015.5
20260831161515 82 0.0 6.0 0.00 0.00 0.00 77 1015.3
20260831160011 79 0.0 9.0 0.00 0.00 0.00 81 1015.5
20260831154508 77 0.0 7.0 0.00 0.02 0.00 88 1015.4
20260831153005 74 0.0 3.0 0.00 0.02 0.00 93 1015.5
20260831151559 73 0.0 3.0 0.00 0.02 0.00 92 1015.7
20260831150057 73 0.0 3.0 0.00 0.02 0.00 92 1015.6
20260831144556 72 0.0 6.0 0.00 0.03 0.00 91 1015.5
20260831143110 72 0.0 7.0 0.00 0.03 0.00 92 1015.5
20260831141612 71 0.0 5.0 0.00 0.03 0.00 92 1015.5